Regional Weather Roundup
Issued by NWS

Home | Current Version | Previous Version | Graphics & Text | Print | Product List | Glossary On
Versions: 1 2 3 4 5 6 7 8 9 10 11 12 13 14 15 16 17 18 19 20 21 22 23 24 25 26 27 28 29 30 31 32 33 34 35 36 37 38 39 40 41 42 43 44 45 46 47 48 49 50
000
ASUS44 KMEG 260000
RWRTN
TENNESSEE HOURLY STATE WEATHER ROUNDUP
NATIONAL WEATHER SERVICE MEMPHIS TN
600 PM CST SAT FEB 25 2017

TNZ002-004-019-021-049-052-054-088>092-260100-
WEST TENNESSEE

CITY           SKY/WX    TMP DP  RH WIND       PRES   REMARKS
MEMPHIS INTL   CLEAR     41  21  44 N6        30.14S
NWS MEMPHIS      N/A     43 N/A N/A MISG        N/A
JACKSON        CLEAR     41  22  46 NW7       30.14R
UNION CITY     CLEAR     39  12  33 CALM      30.11S
PARIS          CLEAR     36  19  51 W7        30.12R WCI  30
$$

TNZ008-025-027-028-033-062-065-066-260100-
NORTH MIDDLE TENNESSEE

CITY           SKY/WX    TMP DP  RH WIND       PRES   REMARKS
NASHVILLE      CLEAR     44  16  32 NW10      30.08R
CLARKSVILLE    CLEAR     39  17  41 NW9       30.09R WCI  33
SMYRNA         CLEAR     42  19  39 NW10      30.08R
CROSSVILLE     CLEAR     37  15  40 NW12      30.01R WCI  29
$$

TNZ061-075-076-078-094-096-097-260100-
SOUTH MIDDLE TENNESSEE

CITY           SKY/WX    TMP DP  RH WIND       PRES   REMARKS
TULLAHOMA      CLEAR     39  12  33 NW9       30.04S WCI  33
WINCHESTER     CLEAR     43  19  39 N6        30.04R
MCMINNVILLE    CLEAR     41  19  42 NW5       30.04R
COLUMBIA       CLEAR     43  18  36 NW5       30.06R
SHELBYVILLE    CLEAR     45  21  39 W8        30.07R
$$

TNZ017-018-042-046-047-260100-
NORTHEAST TENNESSEE

CITY           SKY/WX    TMP DP  RH WIND       PRES   REMARKS
TRI CITIES     PTCLDY    43  20  39 W14G21    29.93R
$$

TNZ012-013-036-069-073-074-260100-
CENTRAL EAST TENNESSEE

CITY           SKY/WX    TMP DP  RH WIND       PRES   REMARKS
KNOXVILLE      CLEAR     45  17  32 W8        29.99R
OAK RIDGE      CLEAR     45  14  28 W6        30.01R
GATLINBURG     CLEAR     45  18  33 W6        29.97R
$$

TNZ083-085-099-260100-
SOUTHEAST TENNESSEE

CITY           SKY/WX    TMP DP  RH WIND       PRES   REMARKS
CHATTANOOGA    CLEAR     48  21  34 NW8       30.02R
$$

SKY/WX REPORTED AS FAIR MEANS FEW OR NO CLOUDS BELOW
12 THOUSAND FEET.





USA.gov is the U.S. government's official web portal to all federal, state and local government web resources and services.